Weather History for FENTRESS NALF, VA

Change the Weather History Date:

Monday, January 27, 2014

  Actual Average (KORF) Record (KORF)
Temperature  
Mean Temperature 50 °F 40 °F  
Max Temperature 66 °F 48 °F 75 °F (1952)
Min Temperature 35 °F 33 °F 11 °F (1940)
Degree Days  
Heating Degree Days 14 25  
Month to date heating degree days 670  
Since 1 July heating degree days 1849  
Cooling Degree Days 0 0  
Month to date cooling degree days 0  
Year to date cooling degree days 0  
Moisture  
Dew Point 28 °F    
Average Humidity 46    
Maximum Humidity 60    
Minimum Humidity 30    
Precipitation  
Precipitation 0.00 in 0.11 in 1.70 in (1889)
Month to date precipitation 2.96  
Year to date precipitation 2.96  
Snow  
Snow 0.00 in 0.10 in 5.10 in (1936)
Month to date snowfall 2.2  
Since 1 July snowfall 3.4  
Snow Depth -    
Sea Level Pressure  
Sea Level Pressure 29.88 in    
Wind  
Wind Speed 8 mph (North)    
Max Wind Speed 22 mph    
Max Gust Speed 33 mph    
Visibility 10 miles    
Events      
T = Trace of Precipitation, MM = Missing Value Source: NWS Daily Summary

Daily Weather History Graph

Daily Weather History Graph

Search for Another Location

Airport:

Trip Planner

Search our weather history database for the weather conditions in past years. The results will help you decide how hot, cold, wet, or windy it might be!

Date:

Astronomy

Jan. 27, 2014 Rise Set
Actual Time 7:10 AM EST 5:24 PM EST
Civil Twilight 6:42 AM EST 5:52 PM EST
Nautical Twilight 6:11 AM EST 6:23 PM EST
Astronomical Twilight 5:40 AM EST 6:54 PM EST
Moon 3:48 AM EST (1/27) 2:09 PM EST (1/27)
Length of Visible Light 11h 09m
Length of Day
10h 14m
Waning Crescent, 15% of the Moon is Illuminated
Jan 27
Waning Crescent
Jan 30
New
Feb 6
First Quarter
Feb 14
Full
Feb 22
Last Quarter

Hourly Weather History & Observations

Time (EST) Temp. Windchill Dew Point Humidity Pressure Visibility Wind Dir Wind Speed Gust Speed Precip Events Conditions
12:56 AM 43.0 °F 40.3 °F 28.9 °F 58% 29.88 in 10.0 mi Variable 4.6 mph - N/A   Clear
1:56 AM 42.1 °F 38.4 °F 28.9 °F 60% 29.87 in 10.0 mi Variable 5.8 mph - N/A   Clear
2:56 AM 43.0 °F 40.3 °F 28.9 °F 58% 29.87 in 10.0 mi Variable 4.6 mph - N/A   Clear
3:56 AM 45.0 °F 41.8 °F 28.9 °F 53% 29.86 in 10.0 mi Variable 5.8 mph - N/A   Clear
4:56 AM 45.0 °F 42.6 °F 30.0 °F 56% 29.84 in 10.0 mi Variable 4.6 mph - N/A   Clear
5:56 AM 46.0 °F 43.1 °F 30.0 °F 54% 29.83 in 10.0 mi Variable 5.8 mph - N/A   Clear
6:56 AM 46.9 °F - 30.0 °F 52% 29.83 in 10.0 mi Variable 5.8 mph - N/A   Clear
7:56 AM 46.9 °F - 30.9 °F 54% 29.84 in 10.0 mi Variable 5.8 mph - N/A   Clear
8:56 AM 50.0 °F - 32.0 °F 50% 29.84 in 10.0 mi Variable 5.8 mph - N/A   Clear
9:56 AM 51.1 °F - 32.0 °F 48% 29.84 in 10.0 mi Variable 4.6 mph - N/A   Partly Cloudy
10:56 AM 55.9 °F - 33.1 °F 42% 29.84 in 10.0 mi Variable 6.9 mph - N/A   Partly Cloudy
11:56 AM 60.1 °F - 34.0 °F 38% 29.82 in 10.0 mi SSW 8.1 mph - N/A   Clear
12:56 PM 63.0 °F - 34.0 °F 34% 29.78 in 10.0 mi Variable 6.9 mph - N/A   Clear
1:56 PM 64.0 °F - 35.1 °F 34% 29.78 in 10.0 mi Variable 6.9 mph 17.3 mph N/A   Clear
2:56 PM 64.9 °F - 35.1 °F 33% 29.78 in 10.0 mi South 11.5 mph 16.1 mph N/A   Clear
3:56 PM 66.0 °F - 34.0 °F 30% 29.80 in 10.0 mi Variable 6.9 mph - N/A   Clear
4:56 PM 63.0 °F - 36.0 °F 37% 29.81 in 10.0 mi SSW 3.5 mph - N/A   Mostly Cloudy
5:56 PM 50.0 °F - 30.9 °F 48% 29.87 in 10.0 mi North 21.9 mph 31.1 mph N/A   Overcast
6:03 PM 48.0 °F - 30.0 °F 50% 29.87 in 10.0 mi North 19.6 mph 31.1 mph N/A   Mostly Cloudy
6:56 PM 43.0 °F 34.2 °F 24.1 °F 47% 29.93 in 10.0 mi North 20.7 mph 33.4 mph N/A   Scattered Clouds
7:56 PM 41.0 °F 31.4 °F 19.0 °F 41% 29.97 in 10.0 mi North 21.9 mph 33.4 mph N/A   Partly Cloudy
8:56 PM 37.9 °F 27.9 °F 18.0 °F 45% 30.01 in 10.0 mi North 19.6 mph 28.8 mph N/A   Partly Cloudy
9:56 PM 37.0 °F 27.4 °F 17.1 °F 44% 30.07 in 10.0 mi North 17.3 mph 25.3 mph N/A   Clear
10:56 PM 35.1 °F 24.8 °F 16.0 °F 46% 30.12 in 10.0 mi North 17.3 mph 23.0 mph N/A   Clear
11:56 PM 35.1 °F 25.2 °F 15.1 °F 44% 30.13 in 10.0 mi North 16.1 mph 24.2 mph N/A   Partly Cloudy